Погода в Ковалеве

Россия / Омская область     55°05′41″N   75°16′40″E
темп.,
°C
ветер,
м/с
пор.,
м/с
влажн.,
%
обл.,
%
осадки,
мм/ч
давл.,
гПа
погр.,
м
17 мая, пн
пн1700:00+19с386387 0.0 1015346
03:00+16ссз3679100 0.0 1016104
06:00+15сз238165 0.0 101773
09:00+22зюз34545 0.0 1017624
12:00+27зюз57365 0.0 10151321
15:00+32зсз71021100 0.0 10134298
18:00+31сз710225 0.0 10123934
21:00+24з48360 0.0 1010111
18 мая, вт
вт1800:00+21зюз412435 0.0 1010193
03:00+18з49485 0.0 1009154
06:00+18сз411585 0.0 1009287
09:00+21сз58505 0.1 1009696
12:00+25сз673965 0.1 10091663
15:00+27зсз6931100 0.0 10083335
18:00+18зсз111573100 1.0 1008555
21:00+16с41080100 7.3 1008584
19 мая, ср
ср1900:00+12с7118799 7.4 1011594
03:00+11ссв6982100 0.0 1012775
06:00+9ссв6118368 0.0 1014690
09:00+11ссв61067100 0.0 1015940
12:00+15ссв783968 0.0 10162151
15:00+15ссв783397 0.0 10172418
18:00+15с683542 0.0 10172224
21:00+11с365119 0.0 1018191
20 мая, чт
чт2000:00+9ссв51050100 0.0 1019456
03:00+6с410575 0.0 1020325
06:00+4ссв495690 0.0 1022421
09:00+7с46375 0.0 10241160
12:00+11ссз452999 0.0 10231536
15:00+11ссз4629100 0.0 10221413
18:00+9сз4460100 0.3 10221043
21:00+7ююв5985100 2.8 1020371
21 мая, пт
пт2100:00+7ююв61085100 4.0 1018508
03:00+8ююв5878100 0.1 1016276
06:00+8юв3474100 0.1 1018163
09:00+12в226748 0.0 1019351
12:00+18св11563 0.0 1019690
15:00+22сз34455 0.0 10181074
18:00+25сз47415 0.0 10171491
21:00+18з337228 2.4 101726